| time (UTC) | temp F | wind direction | speed MPH | gust MPH | rain 1hr in | rain 24hr in | rain mn in | humidity % | barometer mb |
| 20260509120506 | 59 | 276 | 3.0 | 12.0 | 0.00 | 0.13 | 0.04 | 76 | 1009.8 |
| 20260509115507 | 59 | 260 | 3.0 | 9.0 | 0.00 | 0.13 | 0.04 | 75 | 1009.7 |
| 20260509115007 | 59 | 272 | 5.0 | 10.0 | 0.00 | 0.13 | 0.04 | 74 | 1009.8 |
| 20260509114007 | 59 | 269 | 3.0 | 8.0 | 0.00 | 0.13 | 0.04 | 74 | 1009.8 |
| 20260509113506 | 59 | 222 | 5.0 | 12.0 | 0.00 | 0.13 | 0.04 | 72 | 1009.8 |
| 20260509113007 | 59 | 258 | 6.0 | 9.0 | 0.00 | 0.13 | 0.04 | 72 | 1009.8 |
| 20260509112006 | 59 | 236 | 5.0 | 10.0 | 0.01 | 0.13 | 0.04 | 73 | 1009.9 |
| 20260509111506 | 59 | 275 | 5.0 | 12.0 | 0.01 | 0.13 | 0.04 | 73 | 1009.8 |
| 20260509111006 | 60 | 248 | 6.0 | 12.0 | 0.01 | 0.13 | 0.04 | 74 | 1010.0 |
| 20260509110506 | 60 | 282 | 6.0 | 12.0 | 0.01 | 0.13 | 0.04 | 74 | 1010.0 |
| 20260509110007 | 60 | 264 | 3.0 | 12.0 | 0.01 | 0.14 | 0.04 | 75 | 1010.0 |
| 20260509105506 | 59 | 238 | 6.0 | 12.0 | 0.01 | 0.15 | 0.04 | 73 | 1010.1 |
| 20260509105006 | 59 | 239 | 5.0 | 10.0 | 0.01 | 0.16 | 0.04 | 72 | 1010.1 |
| 20260509104507 | 59 | 222 | 3.0 | 8.0 | 0.01 | 0.16 | 0.04 | 74 | 1010.1 |
| 20260509104006 | 59 | 204 | 7.0 | 10.0 | 0.01 | 0.17 | 0.04 | 70 | 1010.2 |
| 20260509103507 | 59 | 200 | 7.0 | 12.0 | 0.01 | 0.18 | 0.04 | 70 | 1010.2 |
| 20260509103007 | 59 | 201 | 6.0 | 12.0 | 0.01 | 0.18 | 0.04 | 72 | 1010.2 |
| 20260509102008 | 59 | 195 | 9.0 | 14.0 | 0.01 | 0.17 | 0.03 | 70 | 1010.2 |
| 20260509101508 | 59 | 172 | 6.0 | 12.0 | 0.03 | 0.17 | 0.03 | 70 | 1010.2 |
| 20260509101008 | 59 | 165 | 9.0 | 16.0 | 0.03 | 0.17 | 0.03 | 70 | 1010.1 |
| 20260509100508 | 59 | 175 | 7.0 | 15.0 | 0.03 | 0.17 | 0.03 | 74 | 1010.1 |
| 20260509100008 | 59 | 192 | 7.0 | 13.0 | 0.03 | 0.17 | 0.03 | 73 | 1010.1 |
| 20260509095508 | 59 | 168 | 6.0 | 13.0 | 0.03 | 0.17 | 0.03 | 77 | 1010.1 |
| 20260509095008 | 58 | 185 | 6.0 | 15.0 | 0.03 | 0.17 | 0.03 | 77 | 1010.0 |
| 20260509094508 | 57 | 174 | 5.0 | 9.0 | 0.03 | 0.17 | 0.03 | 80 | 1010.0 |
| 20260509094008 | 57 | 168 | 5.0 | 8.0 | 0.03 | 0.17 | 0.03 | 81 | 1010.1 |
| 20260509093508 | 56 | 191 | 5.0 | 12.0 | 0.03 | 0.17 | 0.03 | 82 | 1010.2 |
| 20260509093008 | 56 | 188 | 5.0 | 8.0 | 0.03 | 0.17 | 0.03 | 82 | 1010.4 |
| 20260509092508 | 56 | 177 | 5.0 | 9.0 | 0.03 | 0.17 | 0.03 | 81 | 1010.4 |
| 20260509092008 | 57 | 176 | 7.0 | 12.0 | 0.02 | 0.17 | 0.02 | 80 | 1010.4 |
| 20260509091508 | 57 | 163 | 9.0 | 17.0 | 0.00 | 0.14 | 0.00 | 77 | 1010.4 |
| 20260509091007 | 58 | 178 | 9.0 | 16.0 | 0.00 | 0.14 | 0.00 | 74 | 1010.3 |
| 20260509090509 | 58 | 171 | 9.0 | 14.0 | 0.00 | 0.14 | 0.00 | 74 | 1010.3 |
| 20260509090013 | 57 | 172 | 9.0 | 14.0 | 0.00 | 0.14 | 0.00 | 74 | 1010.3 |
| 20260509085508 | 57 | 181 | 9.0 | 16.0 | 0.00 | 0.14 | 0.00 | 74 | 1010.2 |
| 20260509084008 | 57 | 180 | 8.0 | 12.0 | 0.00 | 0.14 | 0.00 | 75 | 1010.2 |
| 20260509083508 | 57 | 169 | 7.0 | 14.0 | 0.00 | 0.14 | 0.00 | 76 | 1010.1 |
| 20260509083008 | 57 | 186 | 7.0 | 13.0 | 0.00 | 0.14 | 0.00 | 76 | 1010.2 |
| 20260509082008 | 56 | 161 | 6.0 | 13.0 | 0.00 | 0.14 | 0.00 | 77 | 1010.0 |
| 20260509081508 | 56 | 169 | 6.0 | 12.0 | 0.00 | 0.14 | 0.00 | 77 | 1010.2 |
| 20260509081008 | 56 | 152 | 6.0 | 12.0 | 0.00 | 0.14 | 0.00 | 78 | 1010.3 |
| 20260509080008 | 56 | 179 | 5.0 | 10.0 | 0.00 | 0.14 | 0.00 | 78 | 1010.5 |
| 20260509075507 | 55 | 175 | 6.0 | 10.0 | 0.00 | 0.14 | 0.00 | 79 | 1010.5 |
| 20260509074508 | 55 | 179 | 6.0 | 8.0 | 0.00 | 0.14 | 0.00 | 79 | 1010.5 |
| 20260509074007 | 55 | 166 | 5.0 | 8.0 | 0.00 | 0.14 | 0.00 | 80 | 1010.6 |
| 20260509072507 | 55 | 147 | 0.0 | 2.0 | 0.00 | 0.14 | 0.00 | 81 | 1010.3 |
| 20260509072008 | 55 | 153 | 0.0 | 0.0 | 0.00 | 0.14 | 0.00 | 81 | 1010.5 |
| 20260509071007 | 55 | 196 | 2.0 | 5.0 | 0.00 | 0.14 | 0.00 | 81 | 1010.5 |
| 20260509070508 | 55 | 226 | 3.0 | 7.0 | 0.00 | 0.14 | 0.00 | 81 | 1010.6 |
| 20260509070008 | 55 | 213 | 0.0 | 3.0 | 0.00 | 0.14 | 0.00 | 81 | 1010.6 |
| 20260509065508 | 54 | 204 | 3.0 | 7.0 | 0.00 | 0.14 | 0.00 | 81 | 1010.6 |
| 20260509065008 | 54 | 195 | 3.0 | 6.0 | 0.00 | 0.14 | 0.00 | 81 | 1010.6 |
| 20260509064508 | 54 | 180 | 1.0 | 6.0 | 0.00 | 0.14 | 0.00 | 82 | 1010.7 |
| 20260509063508 | 54 | 275 | 0.0 | 0.0 | 0.00 | 0.14 | 0.00 | 83 | 1010.5 |
| 20260509063008 | 54 | 284 | 0.0 | 0.0 | 0.00 | 0.14 | 0.00 | 82 | 1010.6 |
| 20260509062008 | 54 | 224 | 3.0 | 3.0 | 0.00 | 0.14 | 0.00 | 81 | 1010.5 |
| 20260509061508 | 54 | 173 | 2.0 | 6.0 | 0.00 | 0.14 | 0.00 | 80 | 1010.4 |
| 20260509060508 | 54 | 150 | 3.0 | 7.0 | 0.00 | 0.14 | 0.00 | 80 | 1010.3 |
| 20260509060008 | 54 | 155 | 4.0 | 8.0 | 0.00 | 0.14 | 0.00 | 80 | 1010.3 |
| 20260509055508 | 54 | 150 | 4.0 | 8.0 | 0.00 | 0.14 | 0.00 | 80 | 1010.3 |
| 20260509053508 | 54 | 151 | 6.0 | 12.0 | 0.00 | 0.14 | 0.00 | 81 | 1010.2 |
| 20260509053007 | 54 | 154 | 6.0 | 12.0 | 0.00 | 0.14 | 0.00 | 81 | 1010.2 |
| 20260509052008 | 54 | 164 | 3.0 | 7.0 | 0.00 | 0.14 | 0.00 | 81 | 1010.1 |
| 20260509051507 | 54 | 176 | 3.0 | 8.0 | 0.00 | 0.14 | 0.00 | 81 | 1009.9 |
| 20260509050507 | 54 | 164 | 4.0 | 8.0 | 0.00 | 0.14 | 0.00 | 82 | 1009.8 |
| 20260509050008 | 54 | 137 | 3.0 | 9.0 | 0.00 | 0.14 | 0.00 | 82 | 1009.7 |
| 20260509045508 | 54 | 143 | 4.0 | 7.0 | 0.00 | 0.14 | 0.00 | 82 | 1009.7 |
| 20260509045008 | 54 | 127 | 4.0 | 7.0 | 0.00 | 0.14 | 0.00 | 82 | 1009.6 |
| 20260509043508 | 54 | 107 | 2.0 | 5.0 | 0.00 | 0.14 | 0.00 | 82 | 1009.5 |
| 20260509043008 | 54 | 137 | 5.0 | 8.0 | 0.00 | 0.14 | 0.00 | 82 | 1009.5 |
| 20260509042008 | 54 | 131 | 8.0 | 14.0 | 0.00 | 0.14 | 0.00 | 83 | 1009.1 |
| 20260509041508 | 54 | 117 | 5.0 | 10.0 | 0.00 | 0.14 | 0.00 | 83 | 1009.3 |
| 20260509041007 | 54 | 161 | 5.0 | 10.0 | 0.00 | 0.14 | 0.00 | 83 | 1009.7 |
| 20260509040008 | 54 | 165 | 5.0 | 9.0 | 0.00 | 0.14 | 0.00 | 84 | 1009.9 |
| 20260509035507 | 54 | 150 | 5.0 | 9.0 | 0.00 | 0.14 | 0.00 | 84 | 1010.0 |
| 20260509035008 | 54 | 162 | 5.0 | 10.0 | 0.00 | 0.14 | 0.00 | 84 | 1010.1 |
| 20260509034008 | 54 | 163 | 5.0 | 8.0 | 0.00 | 0.14 | 0.00 | 84 | 1010.1 |
| 20260509033507 | 54 | 170 | 5.0 | 9.0 | 0.00 | 0.14 | 0.00 | 84 | 1010.2 |
| 20260509032007 | 54 | 190 | 5.0 | 7.0 | 0.00 | 0.14 | 0.00 | 84 | 1010.5 |
| 20260509031507 | 54 | 178 | 3.0 | 6.0 | 0.00 | 0.14 | 0.00 | 84 | 1010.4 |
| 20260509030008 | 54 | 155 | 3.0 | 5.0 | 0.00 | 0.14 | 0.00 | 84 | 1010.3 |
| 20260509025508 | 54 | 161 | 3.0 | 6.0 | 0.00 | 0.14 | 0.00 | 84 | 1010.4 |
| 20260509025007 | 54 | 146 | 2.0 | 3.0 | 0.00 | 0.14 | 0.00 | 84 | 1010.5 |
| 20260509024508 | 54 | 146 | 0.0 | 0.0 | 0.00 | 0.14 | 0.00 | 84 | 1010.5 |
| 20260509024008 | 54 | 146 | 0.0 | 0.0 | 0.00 | 0.14 | 0.00 | 84 | 1010.5 |
| 20260509023508 | 54 | 146 | 0.0 | 0.0 | 0.00 | 0.14 | 0.00 | 83 | 1010.4 |
| 20260509022008 | 54 | 145 | 3.0 | 6.0 | 0.00 | 0.14 | 0.00 | 83 | 1010.4 |
| 20260509021507 | 54 | 136 | 2.0 | 6.0 | 0.00 | 0.14 | 0.00 | 83 | 1010.5 |
| 20260509021007 | 55 | 144 | 3.0 | 7.0 | 0.00 | 0.14 | 0.00 | 83 | 1010.4 |
| 20260509020507 | 55 | 142 | 4.0 | 7.0 | 0.00 | 0.14 | 0.00 | 82 | 1010.4 |
| 20260509015507 | 55 | 149 | 5.0 | 12.0 | 0.00 | 0.14 | 0.00 | 82 | 1010.6 |
| 20260509015007 | 55 | 151 | 5.0 | 10.0 | 0.00 | 0.14 | 0.00 | 82 | 1010.6 |
| 20260509014507 | 55 | 154 | 6.0 | 10.0 | 0.00 | 0.14 | 0.00 | 82 | 1010.6 |
| 20260509013507 | 55 | 145 | 4.0 | 10.0 | 0.00 | 0.14 | 0.00 | 81 | 1010.6 |
| 20260509013008 | 55 | 145 | 5.0 | 9.0 | 0.00 | 0.14 | 0.00 | 81 | 1010.6 |
| 20260509012507 | 55 | 147 | 3.0 | 9.0 | 0.00 | 0.14 | 0.00 | 81 | 1010.6 |
| 20260509012007 | 55 | 146 | 7.0 | 13.0 | 0.00 | 0.14 | 0.00 | 81 | 1010.8 |
| 20260509011507 | 55 | 145 | 6.0 | 13.0 | 0.00 | 0.14 | 0.00 | 81 | 1010.8 |
| 20260509011007 | 55 | 153 | 5.0 | 9.0 | 0.00 | 0.14 | 0.00 | 81 | 1010.9 |
| 20260509010507 | 55 | 169 | 6.0 | 12.0 | 0.00 | 0.14 | 0.00 | 80 | 1011.0 |
| 20260509010008 | 56 | 138 | 4.0 | 12.0 | 0.00 | 0.14 | 0.00 | 80 | 1010.9 |
| 20260509005007 | 55 | 140 | 4.0 | 13.0 | 0.00 | 0.14 | 0.00 | 81 | 1010.9 |
| 20260509004507 | 55 | 166 | 4.0 | 12.0 | 0.00 | 0.14 | 0.00 | 81 | 1011.1 |
| 20260509004008 | 55 | 163 | 4.0 | 9.0 | 0.00 | 0.14 | 0.00 | 81 | 1011.1 |
| 20260509003508 | 55 | 157 | 3.0 | 8.0 | 0.00 | 0.14 | 0.00 | 81 | 1011.3 |
| 20260509001507 | 55 | 149 | 0.0 | 5.0 | 0.00 | 0.14 | 0.00 | 82 | 1011.3 |
| 20260509001007 | 55 | 125 | 3.0 | 6.0 | 0.00 | 0.14 | 0.00 | 83 | 1011.4 |
| 20260509000007 | 54 | 98 | 3.0 | 6.0 | 0.00 | 0.14 | 0.00 | 84 | 1011.4 |
| 20260508235509 | 54 | 98 | 3.0 | 6.0 | 0.00 | 0.14 | 0.00 | 85 | 1011.4 |
| 20260508235007 | 54 | 87 | 0.0 | 3.0 | 0.00 | 0.14 | 0.00 | 86 | 1011.4 |
| 20260508234007 | 53 | 34 | 0.0 | 0.0 | 0.00 | 0.14 | 0.00 | 88 | 1011.6 |
| 20260508233508 | 53 | 34 | 0.0 | 0.0 | 0.00 | 0.14 | 0.00 | 88 | 1011.4 |
| 20260508233008 | 53 | 31 | 1.0 | 3.0 | 0.00 | 0.14 | 0.00 | 89 | 1011.4 |
| 20260508232507 | 52 | 43 | 2.0 | 5.0 | 0.00 | 0.14 | 0.00 | 89 | 1011.4 |
| 20260508232007 | 52 | 355 | 3.0 | 7.0 | 0.00 | 0.14 | 0.00 | 89 | 1011.3 |
| 20260508231508 | 52 | 353 | 4.0 | 6.0 | 0.00 | 0.14 | 0.00 | 89 | 1011.3 |
| 20260508231007 | 52 | 348 | 4.0 | 6.0 | 0.00 | 0.14 | 0.00 | 89 | 1011.4 |
| 20260508230507 | 52 | 350 | 5.0 | 6.0 | 0.00 | 0.14 | 0.00 | 89 | 1011.4 |
| 20260508230007 | 52 | 345 | 3.0 | 5.0 | 0.00 | 0.14 | 0.00 | 88 | 1011.5 |
| 20260508225507 | 53 | 346 | 2.0 | 3.0 | 0.00 | 0.14 | 0.00 | 87 | 1011.5 |
| 20260508225007 | 53 | 46 | 1.0 | 3.0 | 0.00 | 0.14 | 0.00 | 87 | 1011.5 |
| 20260508224507 | 53 | 60 | 1.0 | 5.0 | 0.00 | 0.14 | 0.00 | 87 | 1011.6 |
| 20260508223507 | 53 | 41 | 2.0 | 6.0 | 0.00 | 0.14 | 0.00 | 87 | 1011.6 |
| 20260508222507 | 52 | 12 | 6.0 | 9.0 | 0.00 | 0.14 | 0.00 | 87 | 1011.5 |
| 20260508222007 | 52 | 3 | 6.0 | 10.0 | 0.00 | 0.14 | 0.00 | 87 | 1011.5 |
| 20260508221507 | 52 | 354 | 5.0 | 8.0 | 0.00 | 0.14 | 0.00 | 87 | 1011.5 |
| 20260508221007 | 53 | 348 | 5.0 | 9.0 | 0.00 | 0.14 | 0.00 | 87 | 1011.6 |
| 20260508220508 | 53 | 353 | 6.0 | 9.0 | 0.00 | 0.14 | 0.00 | 86 | 1011.6 |
| 20260508220008 | 53 | 359 | 5.0 | 9.0 | 0.00 | 0.14 | 0.00 | 86 | 1011.6 |
| 20260508215507 | 53 | 5 | 5.0 | 9.0 | 0.00 | 0.14 | 0.14 | 86 | 1011.6 |
| 20260508215007 | 53 | 358 | 6.0 | 8.0 | 0.00 | 0.14 | 0.14 | 87 | 1011.7 |
| 20260508214507 | 52 | 351 | 6.0 | 9.0 | 0.00 | 0.14 | 0.14 | 87 | 1011.8 |
| 20260508213508 | 52 | 351 | 5.0 | 6.0 | 0.00 | 0.14 | 0.14 | 88 | 1011.8 |
| 20260508213007 | 52 | 354 | 5.0 | 6.0 | 0.00 | 0.14 | 0.14 | 88 | 1011.8 |
| 20260508212507 | 52 | 352 | 4.0 | 6.0 | 0.00 | 0.14 | 0.14 | 88 | 1011.8 |
| 20260508212007 | 52 | 357 | 5.0 | 7.0 | 0.00 | 0.14 | 0.14 | 87 | 1011.8 |
| 20260508211507 | 52 | 8 | 4.0 | 6.0 | 0.00 | 0.14 | 0.14 | 87 | 1011.8 |
| 20260508211007 | 52 | 349 | 5.0 | 8.0 | 0.00 | 0.14 | 0.14 | 87 | 1011.7 |
| 20260508210507 | 52 | 352 | 3.0 | 5.0 | 0.00 | 0.14 | 0.14 | 86 | 1011.7 |
| 20260508205507 | 53 | 16 | 4.0 | 6.0 | 0.00 | 0.14 | 0.14 | 86 | 1011.6 |
| 20260508204507 | 53 | 7 | 3.0 | 5.0 | 0.00 | 0.14 | 0.14 | 85 | 1011.6 |
| 20260508203507 | 53 | 34 | 3.0 | 5.0 | 0.00 | 0.14 | 0.14 | 84 | 1011.6 |
| 20260508203008 | 53 | 22 | 3.0 | 5.0 | 0.00 | 0.14 | 0.14 | 84 | 1011.6 |
| 20260508202507 | 53 | 22 | 3.0 | 7.0 | 0.00 | 0.14 | 0.14 | 83 | 1011.6 |
| 20260508202007 | 53 | 6 | 5.0 | 7.0 | 0.00 | 0.14 | 0.14 | 82 | 1011.3 |
| 20260508201007 | 54 | 19 | 3.0 | 3.0 | 0.00 | 0.14 | 0.14 | 80 | 1011.3 |
| 20260508200507 | 54 | 19 | 2.0 | 5.0 | 0.00 | 0.14 | 0.14 | 80 | 1011.3 |
| 20260508200007 | 54 | 30 | 2.0 | 3.0 | 0.00 | 0.14 | 0.14 | 80 | 1011.3 |
| 20260508195507 | 54 | 34 | 2.0 | 5.0 | 0.00 | 0.14 | 0.14 | 80 | 1011.2 |
| 20260508195007 | 54 | 56 | 2.0 | 3.0 | 0.00 | 0.14 | 0.14 | 80 | 1011.2 |
| 20260508194507 | 55 | 25 | 2.0 | 3.0 | 0.00 | 0.14 | 0.14 | 79 | 1011.2 |
| 20260508194007 | 55 | 25 | 1.0 | 3.0 | 0.00 | 0.14 | 0.14 | 79 | 1011.2 |
| 20260508193507 | 55 | 28 | 2.0 | 3.0 | 0.00 | 0.14 | 0.14 | 79 | 1011.2 |
| 20260508193007 | 55 | 32 | 1.0 | 3.0 | 0.00 | 0.14 | 0.14 | 80 | 1011.1 |
| 20260508192507 | 55 | 20 | 1.0 | 3.0 | 0.00 | 0.14 | 0.14 | 79 | 1011.1 |
| 20260508192007 | 56 | 19 | 2.0 | 3.0 | 0.00 | 0.14 | 0.14 | 78 | 1010.9 |
| 20260508191507 | 57 | 19 | 2.0 | 3.0 | 0.00 | 0.14 | 0.14 | 76 | 1010.9 |
| 20260508190507 | 58 | 28 | 0.0 | 0.0 | 0.00 | 0.14 | 0.14 | 73 | 1010.7 |
| 20260508185507 | 59 | 28 | 1.0 | 2.0 | 0.00 | 0.14 | 0.14 | 70 | 1010.7 |
| 20260508185007 | 60 | 28 | 1.0 | 3.0 | 0.00 | 0.14 | 0.14 | 69 | 1010.7 |
| 20260508184508 | 60 | 22 | 1.0 | 3.0 | 0.00 | 0.14 | 0.14 | 68 | 1010.7 |
| 20260508184010 | 61 | 5 | 2.0 | 3.0 | 0.00 | 0.14 | 0.14 | 66 | 1010.6 |
| 20260508183507 | 61 | 5 | 2.0 | 3.0 | 0.00 | 0.14 | 0.14 | 65 | 1010.6 |
| 20260508183007 | 61 | 5 | 2.0 | 3.0 | 0.00 | 0.14 | 0.14 | 64 | 1010.5 |
| 20260508182507 | 61 | 5 | 2.0 | 3.0 | 0.00 | 0.14 | 0.14 | 63 | 1010.5 |
| 20260508181507 | 61 | 5 | 3.0 | 5.0 | 0.00 | 0.14 | 0.14 | 62 | 1010.4 |
| 20260508180007 | 61 | 346 | 3.0 | 5.0 | 0.00 | 0.14 | 0.14 | 62 | 1010.5 |
| 20260508175507 | 61 | 355 | 2.0 | 5.0 | 0.00 | 0.14 | 0.14 | 64 | 1010.5 |
| 20260508175007 | 61 | 12 | 4.0 | 7.0 | 0.00 | 0.14 | 0.14 | 64 | 1010.5 |
| 20260508174507 | 60 | 10 | 3.0 | 5.0 | 0.00 | 0.14 | 0.14 | 64 | 1010.6 |
| 20260508174006 | 60 | 10 | 3.0 | 7.0 | 0.00 | 0.14 | 0.14 | 65 | 1010.7 |
| 20260508173507 | 60 | 0 | 3.0 | 8.0 | 0.00 | 0.14 | 0.14 | 67 | 1010.7 |
| 20260508172007 | 61 | 352 | 7.0 | 10.0 | 0.00 | 0.14 | 0.14 | 67 | 1010.5 |
| 20260508171507 | 61 | 353 | 7.0 | 12.0 | 0.00 | 0.14 | 0.14 | 67 | 1010.6 |
| 20260508170507 | 62 | 355 | 4.0 | 6.0 | 0.00 | 0.14 | 0.14 | 64 | 1010.6 |
| 20260508170008 | 61 | 324 | 3.0 | 3.0 | 0.00 | 0.14 | 0.14 | 63 | 1010.6 |
| 20260508165507 | 61 | 292 | 4.0 | 7.0 | 0.00 | 0.14 | 0.14 | 63 | 1010.6 |
| 20260508165010 | 62 | 344 | 7.0 | 10.0 | 0.00 | 0.14 | 0.14 | 65 | 1010.6 |
| 20260508164507 | 61 | 315 | 6.0 | 12.0 | 0.00 | 0.14 | 0.14 | 67 | 1010.6 |
| 20260508164007 | 61 | 340 | 6.0 | 9.0 | 0.00 | 0.14 | 0.14 | 66 | 1010.7 |
| 20260508163507 | 61 | 301 | 5.0 | 9.0 | 0.00 | 0.14 | 0.14 | 64 | 1010.7 |
| 20260508163007 | 61 | 316 | 6.0 | 10.0 | 0.00 | 0.14 | 0.14 | 65 | 1010.8 |
| 20260508162507 | 61 | 321 | 6.0 | 10.0 | 0.00 | 0.14 | 0.14 | 68 | 1010.8 |
| 20260508161506 | 60 | 318 | 9.0 | 12.0 | 0.00 | 0.14 | 0.14 | 69 | 1010.8 |
| 20260508161006 | 60 | 341 | 10.0 | 14.0 | 0.00 | 0.14 | 0.14 | 71 | 1010.7 |
| 20260508160507 | 60 | 319 | 12.0 | 16.0 | 0.00 | 0.14 | 0.14 | 70 | 1010.8 |
| 20260508155506 | 61 | 291 | 12.0 | 17.0 | 0.00 | 0.15 | 0.14 | 72 | 1010.8 |
| 20260508154507 | 63 | 281 | 7.0 | 17.0 | 0.00 | 0.16 | 0.14 | 62 | 1010.9 |
| 20260508154006 | 63 | 228 | 6.0 | 12.0 | 0.00 | 0.17 | 0.14 | 60 | 1010.8 |
| 20260508153007 | 62 | 196 | 8.0 | 14.0 | 0.00 | 0.20 | 0.14 | 57 | 1010.8 |
| 20260508152507 | 62 | 216 | 9.0 | 15.0 | 0.00 | 0.20 | 0.14 | 58 | 1010.9 |
| 20260508152007 | 62 | 201 | 10.0 | 14.0 | 0.00 | 0.20 | 0.14 | 60 | 1010.8 |
| 20260508151507 | 62 | 197 | 7.0 | 12.0 | 0.00 | 0.21 | 0.14 | 61 | 1010.9 |
| 20260508151007 | 62 | 200 | 6.0 | 10.0 | 0.00 | 0.21 | 0.14 | 61 | 1010.9 |
| 20260508150507 | 61 | 212 | 6.0 | 10.0 | 0.00 | 0.21 | 0.14 | 62 | 1011.0 |
| 20260508145506 | 61 | 212 | 3.0 | 12.0 | 0.00 | 0.21 | 0.14 | 63 | 1011.0 |
| 20260508145006 | 61 | 180 | 5.0 | 10.0 | 0.00 | 0.21 | 0.14 | 62 | 1011.2 |
| 20260508144506 | 61 | 228 | 6.0 | 14.0 | 0.00 | 0.21 | 0.14 | 62 | 1011.2 |
| 20260508144006 | 61 | 168 | 5.0 | 12.0 | 0.00 | 0.21 | 0.14 | 63 | 1011.2 |
| 20260508143506 | 61 | 200 | 6.0 | 12.0 | 0.00 | 0.22 | 0.14 | 62 | 1011.3 |
| 20260508142507 | 61 | 200 | 4.0 | 9.0 | 0.00 | 0.24 | 0.14 | 63 | 1011.4 |
| 20260508142007 | 60 | 207 | 6.0 | 10.0 | 0.00 | 0.24 | 0.14 | 65 | 1011.3 |
| 20260508141507 | 60 | 157 | 3.0 | 9.0 | 0.00 | 0.24 | 0.14 | 66 | 1011.4 |
| 20260508141007 | 60 | 131 | 3.0 | 7.0 | 0.00 | 0.24 | 0.14 | 66 | 1011.4 |
| 20260508140007 | 60 | 207 | 3.0 | 7.0 | 0.00 | 0.24 | 0.14 | 68 | 1011.7 |
| 20260508135506 | 59 | 197 | 3.0 | 10.0 | 0.00 | 0.25 | 0.14 | 67 | 1011.8 |
| 20260508134506 | 59 | 107 | 5.0 | 8.0 | 0.01 | 0.27 | 0.14 | 69 | 1011.8 |
| 20260508134006 | 59 | 120 | 1.0 | 5.0 | 0.02 | 0.33 | 0.14 | 73 | 1011.7 |
| 20260508133506 | 58 | 273 | 1.0 | 3.0 | 0.04 | 0.35 | 0.14 | 73 | 1011.8 |
| 20260508133006 | 57 | 124 | 0.0 | 3.0 | 0.09 | 0.38 | 0.14 | 73 | 1011.8 |
| 20260508132506 | 57 | 178 | 2.0 | 5.0 | 0.09 | 0.39 | 0.14 | 75 | 1011.8 |
| 20260508131507 | 56 | 246 | 3.0 | 6.0 | 0.09 | 0.40 | 0.14 | 81 | 1011.8 |
| 20260508130507 | 55 | 315 | 6.0 | 10.0 | 0.09 | 0.40 | 0.14 | 80 | 1011.9 |
| 20260508130007 | 55 | 318 | 8.0 | 12.0 | 0.09 | 0.40 | 0.14 | 83 | 1011.9 |
| 20260508124506 | 53 | 325 | 9.0 | 12.0 | 0.09 | 0.39 | 0.13 | 84 | 1011.9 |
| 20260508124006 | 54 | 318 | 5.0 | 6.0 | 0.08 | 0.39 | 0.13 | 83 | 1012.3 |
| 20260508123506 | 54 | 322 | 0.0 | 1.0 | 0.06 | 0.36 | 0.10 | 83 | 1012.8 |
| 20260508123007 | 54 | 330 | 2.0 | 5.0 | 0.00 | 0.31 | 0.05 | 83 | 1012.8 |
| 20260508122507 | 54 | 340 | 6.0 | 8.0 | 0.00 | 0.31 | 0.05 | 81 | 1012.5 |
| 20260508122006 | 54 | 327 | 7.0 | 9.0 | 0.00 | 0.31 | 0.05 | 80 | 1012.7 |
| 20260508121506 | 54 | 340 | 7.0 | 12.0 | 0.00 | 0.31 | 0.05 | 81 | 1012.5 |